User: anonymous   Login
Location: Unspecified
(0.0000°N, 0.0000°E)
Time: 00:02:39
(UTC+02:00)
Language:

IUS-9 SRM-1 - Orbit

View from above orbital plane
View from above orbital plane
View from above satellite
View from above satellite

Ground track
Ground track

The orbit data is extracted from the following two-line orbital elements,

1 19884U 89021C   15089.37260620  .00008024  00000-0  11347-2 0  9991
2 19884 026.5071 270.2966 6033120 335.4433 020.8784 04.00870859300963
Epoch (UTC): 30 March 2015 08:56:33
Eccentricity: 0.6033120
inclination: 26.5071°
perigee height: 262 km
apogee height: 20459 km
right ascension of ascending node: 270.2966°
argument of perigee: 335.4433°
revolutions per day: 4.00870859
mean anomaly at epoch: 20.8784°
orbit number at epoch: 30096

The dashed part of the orbit path shows where the satellite is in the earth's shadow,  

DLR